GW5072 Weather Reports


Display with metric or nautical units.
time (UTC)temp
F
wind
direction
speed
MPH
gust
MPH
rain 1hr
in
rain 24hr
in
rain mn
in
humidity
%
barometer
mb
20260503032509 58 324 0.0 0.0 0.00 0.01 0.01 89 1020.7
20260503032006 58 325 0.0 0.0 0.00 0.01 0.01 89 1020.6
20260503031523 58 324 0.0 0.0 0.00 0.01 0.01 89 1020.5
20260503031004 58 325 0.0 0.0 0.00 0.01 0.01 88 1020.5
20260503030511 58 325 0.0 0.0 0.00 0.01 0.01 88 1020.6
20260503030019 59 324 0.0 0.0 0.00 0.01 0.01 87 1020.5
20260503025506 59 324 0.0 0.0 0.00 0.01 0.01 87 1020.4
20260503025008 59 325 0.0 0.0 0.00 0.01 0.01 87 1020.4
20260503024520 59 324 0.0 0.0 0.00 0.01 0.01 86 1020.6
20260503024003 59 324 0.0 0.0 0.00 0.01 0.01 86 1020.6
20260503023510 60 324 0.0 0.0 0.00 0.01 0.01 85 1020.6
20260503023019 60 324 0.0 0.0 0.00 0.01 0.01 85 1020.4
20260503022507 60 324 0.0 0.0 0.00 0.01 0.01 85 1020.3
20260503022015 60 325 0.0 0.0 0.00 0.01 0.01 84 1020.3
20260503021514 60 324 0.0 0.0 0.00 0.01 0.01 84 1020.2
20260503021008 61 324 0.0 0.0 0.00 0.01 0.01 83 1020.3
20260503020509 61 324 0.0 0.0 0.00 0.01 0.01 83 1020.3
20260503020010 61 324 0.0 0.0 0.00 0.01 0.01 83 1020.1
20260503015509 61 324 0.0 0.0 0.00 0.01 0.01 82 1020.0
20260503015005 62 324 0.0 0.0 0.00 0.01 0.01 80 1020.0
20260503014527 62 325 0.0 0.0 0.00 0.01 0.01 79 1020.0
20260503014008 63 324 0.0 0.0 0.00 0.01 0.01 78 1019.9
20260503013505 63 324 0.0 0.0 0.00 0.01 0.01 75 1019.9
20260503013034 64 324 0.0 0.0 0.00 0.01 0.01 74 1019.8
20260503012507 64 324 0.0 0.0 0.00 0.01 0.01 73 1019.8
20260503012014 65 324 0.0 0.0 0.00 0.01 0.01 73 1019.7
20260503011529 66 324 0.0 0.0 0.00 0.02 0.01 72 1019.5
20260503011004 66 324 0.0 0.0 0.00 0.02 0.01 72 1019.6
20260503010507 67 324 0.0 0.0 0.00 0.02 0.01 69 1019.6
20260503010023 68 324 0.0 0.0 0.00 0.02 0.01 68 1019.5
20260503005503 69 324 0.0 0.0 0.00 0.02 0.01 67 1019.4
20260503005008 69 324 0.0 0.0 0.00 0.02 0.01 68 1019.3
20260503004517 70 324 0.0 0.0 0.00 0.02 0.01 65 1019.3
20260503004011 70 324 0.0 1.0 0.00 0.03 0.01 62 1019.2
20260503003508 71 324 0.0 1.0 0.00 0.04 0.01 62 1019.1
20260503003018 71 356 0.0 1.0 0.00 0.05 0.01 60 1019.1
20260503002515 71 356 0.0 4.0 0.00 0.06 0.01 59 1019.1
20260503002008 72 306 0.0 4.0 0.00 0.07 0.01 56 1019.1
20260503001516 72 338 0.0 3.0 0.00 0.07 0.01 55 1019.1
20260503001017 72 321 0.0 5.0 0.00 0.08 0.01 55 1019.0
20260503000506 72 39 0.0 5.0 0.00 0.09 0.01 54 1018.9
20260503000036 72 33 0.0 3.0 0.00 0.09 0.01 57 1018.9
20260502235507 73 354 0.0 1.0 0.00 0.12 0.01 57 1018.9
20260502235006 73 115 0.0 1.0 0.00 0.13 0.01 56 1018.8
20260502234528 73 117 0.0 3.0 0.00 0.14 0.01 54 1018.8
20260502234011 73 92 0.0 3.0 0.00 0.16 0.01 55 1018.7
20260502233512 74 113 0.0 4.0 0.00 0.17 0.01 53 1018.7
20260502233024 74 148 0.0 4.0 0.00 0.17 0.01 53 1018.8
20260502232513 74 50 0.0 2.0 0.00 0.18 0.01 51 1018.8
20260502232008 74 295 0.0 3.0 0.00 0.18 0.01 53 1018.8
20260502231523 74 328 0.0 3.0 0.00 0.19 0.01 53 1018.7
20260502231008 75 314 1.0 3.0 0.00 0.20 0.01 51 1018.7
20260502230511 75 96 0.0 2.0 0.00 0.20 0.01 50 1018.7
20260502230024 75 39 0.0 2.0 0.00 0.21 0.01 51 1018.8
20260502225507 75 323 0.0 2.0 0.00 0.23 0.01 52 1018.8
20260502225006 75 125 1.0 2.0 0.00 0.27 0.01 50 1018.8
20260502224523 76 72 0.0 2.0 0.00 0.29 0.01 49 1018.8
20260502224010 76 60 0.0 2.0 0.00 0.30 0.01 50 1018.8
20260502223511 76 78 1.0 2.0 0.00 0.31 0.01 49 1018.8
20260502223020 76 75 0.0 1.0 0.00 0.31 0.01 53 1018.8
20260502222507 76 88 0.0 1.0 0.00 0.31 0.01 51 1018.8
20260502222006 76 67 0.0 4.0 0.00 0.31 0.01 52 1019.0
20260502221533 76 343 1.0 4.0 0.00 0.31 0.01 49 1018.9
20260502221006 76 88 0.0 2.0 0.00 0.31 0.01 51 1019.0
20260502220507 76 93 0.0 3.0 0.00 0.31 0.01 50 1018.9
20260502220026 76 51 1.0 5.0 0.00 0.31 0.01 51 1019.1
20260502215508 76 98 1.0 8.0 0.00 0.31 0.01 49 1019.0
20260502215008 77 324 2.0 8.0 0.00 0.31 0.01 48 1018.9
20260502214527 76 229 0.0 3.0 0.00 0.31 0.01 49 1018.9
20260502214007 76 77 0.0 3.0 0.00 0.33 0.01 50 1019.1
20260502213509 76 330 1.0 3.0 0.00 0.34 0.01 48 1019.1
20260502213027 77 214 0.0 2.0 0.00 0.36 0.01 49 1019.2
20260502212507 77 115 0.0 3.0 0.00 0.39 0.01 49 1019.1
20260502212010 76 10 1.0 3.0 0.00 0.41 0.01 48 1019.2
20260502211526 76 319 1.0 3.0 0.00 0.43 0.01 51 1019.2
20260502211008 76 95 0.0 2.0 0.00 0.45 0.01 49 1019.2
20260502210502 76 57 0.0 2.0 0.00 0.47 0.01 51 1019.3
20260502210024 76 61 0.0 2.0 0.00 0.47 0.01 49 1019.4
20260502205509 77 72 0.0 2.0 0.00 0.48 0.01 54 1019.4
20260502205007 77 302 0.0 5.0 0.00 0.48 0.01 50 1019.5
20260502204525 77 291 1.0 5.0 0.00 0.50 0.01 52 1019.5
20260502204006 77 320 1.0 4.0 0.00 0.50 0.01 50 1019.6
20260502203503 77 23 1.0 4.0 0.00 0.50 0.01 51 1019.6
20260502203021 76 296 1.0 5.0 0.00 0.50 0.01 50 1019.6
20260502202503 76 313 1.0 5.0 0.00 0.51 0.01 49 1019.7
20260502202011 76 291 0.0 5.0 0.00 0.51 0.01 54 1019.6
20260502201519 75 51 1.0 5.0 0.00 0.51 0.01 54 1019.7
20260502201003 75 323 0.0 5.0 0.00 0.52 0.01 51 1019.7
20260502200512 75 276 1.0 7.0 0.00 0.52 0.01 51 1019.8
20260502200014 75 319 3.0 7.0 0.00 0.54 0.01 48 1019.8
20260502195504 75 79 0.0 2.0 0.00 0.55 0.01 51 1019.9
20260502195004 75 248 0.0 2.0 0.00 0.56 0.01 51 1019.9
20260502194510 75 146 0.0 2.0 0.00 0.57 0.01 52 1019.9
20260502194007 75 39 1.0 7.0 0.00 0.58 0.01 51 1020.0
20260502193508 75 59 0.0 7.0 0.00 0.60 0.01 51 1020.1
20260502193009 75 326 1.0 6.0 0.00 0.61 0.01 50 1020.2
20260502192509 75 328 1.0 5.0 0.00 0.62 0.01 51 1020.2
20260502192007 76 316 2.0 5.0 0.00 0.63 0.01 47 1020.3
20260502191531 75 116 1.0 5.0 0.00 0.63 0.01 50 1020.4
20260502191012 75 141 1.0 5.0 0.00 0.63 0.01 55 1020.4
20260502190504 75 93 1.0 5.0 0.00 0.63 0.01 51 1020.5
20260502190028 75 287 1.0 5.0 0.00 0.63 0.01 54 1020.5
20260502185505 75 72 0.0 6.0 0.00 0.64 0.01 50 1020.5
20260502185002 75 161 1.0 6.0 0.00 0.64 0.01 51 1020.6
20260502184523 75 305 1.0 4.0 0.00 0.64 0.01 54 1020.8
20260502184004 74 302 0.0 4.0 0.00 0.64 0.01 55 1020.8
20260502183508 74 66 1.0 4.0 0.00 0.64 0.01 52 1020.8
20260502183021 74 116 1.0 4.0 0.00 0.64 0.01 57 1020.9
20260502182506 74 72 1.0 4.0 0.00 0.64 0.01 53 1020.9
20260502182010 74 103 1.0 8.0 0.00 0.64 0.01 52 1021.1
20260502181518 73 223 3.0 8.0 0.00 0.64 0.01 53 1021.2
20260502181004 73 77 1.0 7.0 0.00 0.64 0.01 53 1021.2
20260502180508 73 41 2.0 7.0 0.00 0.64 0.01 55 1021.2
20260502170507 69 60 0.0 4.0 0.00 0.69 0.01 64 1021.6
20260502164004 66 218 0.0 4.0 0.00 0.70 0.01 67 1021.6
20260502163508 66 120 1.0 4.0 0.00 0.71 0.01 69 1021.6
20260502163034 65 263 0.0 4.0 0.00 0.71 0.01 70 1021.5
20260502162505 65 172 0.0 2.0 0.00 0.72 0.01 71 1021.5
20260502162010 65 288 0.0 4.0 0.00 0.73 0.01 71 1021.6
20260502161520 65 300 0.0 5.0 0.00 0.74 0.01 73 1021.6
20260502161012 64 335 1.0 5.0 0.00 0.76 0.01 73 1021.5
20260502160509 64 28 0.0 5.0 0.00 0.78 0.01 78 1021.5
20260502152007 61 321 0.0 2.0 0.00 1.16 0.01 84 1021.2
20260502151527 61 13 0.0 4.0 0.00 1.16 0.01 85 1021.3
20260502151006 60 122 0.0 4.0 0.00 1.16 0.01 84 1021.2
20260502150510 60 1 0.0 3.0 0.01 1.16 0.01 85 1021.3
20260502130512 52 319 1.0 5.0 0.00 1.72 0.00 96 1020.1
20260502123514 50 319 0.0 3.0 0.00 2.06 0.00 97 1019.8
20260502123044 50 329 0.0 2.0 0.00 2.09 0.00 97 1019.6
20260502122512 50 323 0.0 2.0 0.00 2.15 0.00 97 1019.5
20260502122018 50 333 0.0 1.0 0.00 2.26 0.00 97 1019.5
20260502121522 50 333 0.0 1.0 0.00 2.30 0.00 97 1019.5
20260502121004 50 333 0.0 1.0 0.00 2.32 0.00 97 1019.4
20260502120504 50 333 0.0 1.0 0.00 2.38 0.00 97 1019.4
20260502115508 50 328 0.0 1.0 0.00 2.44 0.00 96 1019.3
20260502115011 50 328 0.0 1.0 0.00 2.48 0.00 96 1019.2
20260502114515 50 328 0.0 1.0 0.00 2.54 0.00 96 1019.2
20260502114003 50 328 0.0 1.0 0.00 2.70 0.00 96 1019.2
20260502113507 50 328 0.0 1.0 0.00 2.72 0.00 96 1019.1
20260502113014 50 349 0.0 1.0 0.00 2.73 0.00 96 1019.1
20260502112507 50 347 0.0 1.0 0.00 2.74 0.00 96 1019.1
20260502112007 50 347 0.0 1.0 0.00 2.75 0.00 96 1018.8
20260502111511 50 347 0.0 1.0 0.00 2.77 0.00 96 1018.8
20260502111010 50 347 0.0 1.0 0.00 2.80 0.00 96 1018.7
20260502110504 50 349 0.0 1.0 0.00 2.82 0.00 96 1018.6
20260502110009 50 318 0.0 0.0 0.00 2.83 0.00 96 1018.5
20260502105506 50 318 0.0 0.0 0.00 2.86 0.00 96 1018.5
20260502105005 50 318 0.0 1.0 0.00 2.91 0.00 96 1018.5
20260502104525 50 317 0.0 1.0 0.00 2.94 0.00 96 1018.5
20260502104005 50 327 0.0 1.0 0.00 2.98 0.00 96 1018.4
20260502103504 50 321 0.0 2.0 0.00 2.99 0.00 96 1018.4
20260502103023 50 321 0.0 3.0 0.00 3.01 0.00 96 1018.4
20260502102507 50 316 0.0 3.0 0.00 3.02 0.00 96 1018.3
20260502102005 50 300 0.0 2.0 0.00 3.02 0.00 96 1018.2
20260502101519 50 348 0.0 2.0 0.00 3.02 0.00 96 1018.1
20260502101006 50 316 0.0 2.0 0.00 3.02 0.00 96 1018.1
20260502100508 51 328 0.0 3.0 0.00 3.03 0.00 96 1018.1
20260502091512 51 300 0.0 3.0 0.00 3.27 0.00 97 1017.3
20260502091004 51 222 0.0 1.0 0.00 3.28 0.00 96 1017.2
20260502090506 51 219 0.0 1.0 0.00 3.29 0.00 96 1017.0
20260502071514 53 156 0.0 0.0 0.00 3.69 0.00 97 1016.6
20260502071006 53 156 0.0 0.0 0.00 3.69 0.00 97 1016.7
20260502070507 53 156 0.0 0.0 0.00 3.69 0.00 97 1016.9
20260502070012 53 156 0.0 0.0 0.00 3.69 0.00 97 1016.8
20260502065508 53 155 0.0 0.0 0.00 3.69 0.00 97 1016.9
20260502065011 53 156 0.0 0.0 0.00 3.69 0.00 97 1016.9
20260502064508 53 194 0.0 0.0 0.00 3.69 0.00 97 1016.8
20260502064007 53 195 0.0 1.0 0.00 3.69 0.00 97 1016.7
20260502063504 53 184 0.0 1.0 0.00 3.69 0.00 96 1016.6
20260502063023 53 73 0.0 1.0 0.00 3.69 0.00 96 1016.6
20260502062506 53 115 0.0 1.0 0.00 3.70 0.00 96 1016.5
20260502062001 53 223 0.0 1.0 0.00 3.70 0.00 97 1016.5
20260502061523 53 224 0.0 1.0 0.00 3.70 0.00 96 1016.5
20260502061006 53 100 0.0 1.0 0.00 3.70 0.00 96 1016.6
20260502060506 53 44 0.0 1.0 0.00 3.70 0.00 96 1016.5
20260502060022 53 101 0.0 2.0 0.00 3.71 0.00 96 1016.5
20260502055503 53 101 0.0 2.0 0.00 3.72 0.00 96 1016.5
20260502055008 53 342 0.0 4.0 0.00 3.72 0.00 96 1016.7
20260502054522 53 258 0.0 4.0 0.00 3.72 0.00 96 1016.7
20260502054005 53 59 0.0 2.0 0.00 3.72 0.00 96 1016.6
20260502053507 53 51 0.0 2.0 0.00 3.72 0.00 96 1016.5
20260502053018 54 73 0.0 2.0 0.00 3.72 0.00 96 1016.6
20260502052510 54 91 0.0 1.0 0.00 3.72 0.00 96 1016.7
20260502052007 54 6 0.0 1.0 0.00 3.72 0.00 96 1016.6
20260502051520 54 82 0.0 2.0 0.00 3.72 0.00 96 1016.6
20260502051011 54 72 0.0 4.0 0.00 3.72 0.00 97 1016.5
20260502050507 54 210 0.0 4.0 0.00 3.72 0.00 96 1016.5
20260502050027 54 210 0.0 6.0 0.00 3.72 0.00 97 1016.6
20260502045507 54 255 0.0 6.0 0.00 3.72 3.72 96 1016.5
20260502045007 54 274 0.0 2.0 0.00 3.72 3.72 96 1016.4
20260502044528 54 313 0.0 2.0 0.00 3.72 3.72 96 1016.4
20260502044007 54 108 0.0 2.0 0.00 3.72 3.72 96 1016.3
20260502043505 54 236 0.0 3.0 0.00 3.72 3.72 96 1016.3
20260502043026 54 249 0.0 3.0 0.00 3.72 3.72 96 1016.3
20260502042509 54 77 0.0 3.0 0.00 3.72 3.72 96 1016.3
20260502042015 54 35 0.0 3.0 0.00 3.72 3.72 96 1016.3
20260502041528 54 44 0.0 3.0 0.00 3.72 3.72 96 1016.3
20260502041003 54 250 0.0 3.0 0.00 3.72 3.72 97 1016.3
20260502040506 54 42 0.0 2.0 0.00 3.72 3.72 97 1016.3
20260502040022 54 256 0.0 4.0 0.00 3.72 3.72 97 1016.4
20260502035503 55 234 0.0 4.0 0.00 3.72 3.72 97 1016.3
20260502035010 55 166 0.0 2.0 0.00 3.72 3.72 97 1016.4
20260502034522 55 222 0.0 4.0 0.00 3.72 3.72 97 1016.4
20260502034008 55 319 0.0 4.0 0.00 3.72 3.72 97 1016.4
20260502033508 55 44 0.0 3.0 0.00 3.72 3.72 97 1016.4
20260502033019 55 326 0.0 8.0 0.00 3.72 3.72 97 1016.4